This is the latest recevied weather packets stored in our database for station/object SQ7RAF-15. If no packets are shown the sender has not sent any weather packets the latest 1 day(s).
| Time | Temp. | Humidity | Pressure | Rain* | Wind** | Luminosity | Snow |
|---|---|---|---|---|---|---|---|
| 1777986632 | 28.33° C | 28% | 1005.8 hPa | 0 mm | 0.89 m/s, 235° | 447 W/m² | - |
| 1777986344 | 27.22° C | 28% | 1006 hPa | 0 mm | 2.24 m/s, 156° | 538 W/m² | - |
| 1777986041 | 27.22° C | 28% | 1006.1 hPa | 0 mm | 1.79 m/s, 196° | 387 W/m² | - |
| 1777985736 | 27.22° C | 28% | 1006.1 hPa | 0 mm | 2.24 m/s, 158° | 420 W/m² | - |
| 1777985433 | 27.78° C | 28% | 1006.2 hPa | 0 mm | 2.24 m/s, 195° | 357 W/m² | - |
| 1777985144 | 27.22° C | 27% | 1006.3 hPa | 0 mm | 1.34 m/s, 154° | 387 W/m² | - |
| 1777984824 | 28.33° C | 26% | 1006.3 hPa | 0 mm | 1.79 m/s, 163° | 423 W/m² | - |
| 1777984521 | 28.33° C | 26% | 1006.3 hPa | 0 mm | 1.79 m/s, 157° | 450 W/m² | - |
| 1777984232 | 28.33° C | 26% | 1006.3 hPa | 0 mm | 1.34 m/s, 208° | 443 W/m² | - |
| 1777983945 | 28.33° C | 26% | 1006.4 hPa | 0 mm | 1.79 m/s, 163° | 490 W/m² | - |
| 1777983625 | 27.78° C | 26% | 1006.5 hPa | 0 mm | 1.34 m/s, 207° | 498 W/m² | - |
| 1777983337 | 28.33° C | 25% | 1006.6 hPa | 0 mm | 2.68 m/s, 167° | 495 W/m² | - |
| 1777983033 | 28.89° C | 26% | 1006.5 hPa | 0 mm | 1.34 m/s, 219° | 542 W/m² | - |
| 1777982744 | 27.78° C | 26% | 1006.5 hPa | 0 mm | 0.89 m/s, 291° | 598 W/m² | - |
| 1777982425 | 27.78° C | 26% | 1006.6 hPa | 0 mm | 2.24 m/s, 173° | 603 W/m² | - |
| 1777982136 | 28.33° C | 26% | 1006.6 hPa | 0 mm | 1.34 m/s, 126° | 619 W/m² | - |
| 1777981817 | 28.33° C | 27% | 1006.7 hPa | 0 mm | 1.34 m/s, 188° | 598 W/m² | - |
| 1777981528 | 27.78° C | 28% | 1006.7 hPa | 0 mm | 0.89 m/s, 144° | 584 W/m² | - |
| 1777981225 | 27.22° C | 29% | 1006.8 hPa | 0 mm | 1.34 m/s, 158° | 637 W/m² | - |
| 1777980936 | 26.67° C | 29% | 1006.8 hPa | 0 mm | 1.34 m/s, 131° | 660 W/m² | - |
| 1777980617 | 26.67° C | 30% | 1006.9 hPa | 0 mm | 1.79 m/s, 188° | 561 W/m² | - |
| 1777980329 | 26.67° C | 30% | 1006.8 hPa | 0 mm | 0.89 m/s, 65° | 374 W/m² | - |
| 1777980024 | 26.67° C | 30% | 1007 hPa | 0 mm | 1.34 m/s, 193° | 253 W/m² | - |
| 1777979737 | 27.22° C | 30% | 1006.9 hPa | 0 mm | 0.45 m/s, 69° | 354 W/m² | - |
| 1777979416 | 27.22° C | 30% | 1007.1 hPa | 0 mm | 0.89 m/s, 245° | 366 W/m² | - |
* Rain latest hour (hover to see other rain measurements)
** Current wind speed in m/s (hover to see current wind gust speed)